TimeCDT,TemperatureF,Dew PointF,Humidity,Sea Level PressureIn,VisibilityMPH,Wind Direction,Wind SpeedMPH,Gust SpeedMPH,PrecipitationIn,Events,Conditions,WindDirDegrees,DateUTC
12:15 AM,72.5,67.1,83,30.06,10.0,SW,5.8,-,N/A,,Overcast,220,2013-08-22 05:15:00
12:35 AM,73.4,67.1,81,30.06,10.0,SW,4.6,-,N/A,,Overcast,230,2013-08-22 05:35:00
12:55 AM,73.0,67.3,82,30.07,10.0,Calm,Calm,-,N/A,Thunderstorm,Overcast,0,2013-08-22 05:55:00
1:15 AM,73.4,67.3,81,30.07,10.0,SSE,3.5,-,N/A,Thunderstorm,Overcast,150,2013-08-22 06:15:00
1:35 AM,72.9,67.3,83,30.07,10.0,Calm,Calm,-,N/A,,Overcast,0,2013-08-22 06:35:00
1:55 AM,72.3,68.0,86,30.07,10.0,Calm,Calm,-,N/A,,Overcast,0,2013-08-22 06:55:00
2:15 AM,71.8,68.0,88,30.06,10.0,Calm,Calm,-,N/A,,Overcast,0,2013-08-22 07:15:00
2:35 AM,71.6,67.5,87,30.05,10.0,SSE,4.6,-,N/A,,Overcast,150,2013-08-22 07:35:00
2:55 AM,71.6,67.6,87,30.06,10.0,South,3.5,-,N/A,,Scattered Clouds,170,2013-08-22 07:55:00
3:15 AM,71.4,67.6,88,30.06,10.0,South,3.5,-,N/A,,Light Drizzle,170,2013-08-22 08:15:00
3:35 AM,71.6,68.0,88,30.07,10.0,South,3.5,-,N/A,Thunderstorm,Mostly Cloudy,170,2013-08-22 08:35:00
3:55 AM,70.7,68.0,91,30.07,10.0,ENE,5.8,-,N/A,,Overcast,60,2013-08-22 08:55:00
4:15 AM,71.6,68.0,88,30.07,10.0,East,5.8,-,N/A,Thunderstorm,Thunderstorm,100,2013-08-22 09:15:00
4:35 AM,71.6,68.2,89,30.09,10.0,NNW,3.5,-,N/A,Thunderstorm,Unknown,330,2013-08-22 09:35:00
4:55 AM,71.6,68.2,89,30.09,10.0,Calm,Calm,-,N/A,Rain-Thunderstorm,Light Thunderstorms and Rain,0,2013-08-22 09:55:00
5:15 AM,71.1,68.7,92,30.09,10.0,NE,4.6,-,N/A,Thunderstorm,Overcast,40,2013-08-22 10:15:00
5:35 AM,71.1,68.9,93,30.08,10.0,Calm,Calm,-,N/A,Thunderstorm,Overcast,0,2013-08-22 10:35:00
5:55 AM,70.7,68.9,94,30.08,7.0,Calm,Calm,-,N/A,Rain,Light Rain,0,2013-08-22 10:55:00
6:15 AM,70.2,68.9,96,30.07,7.0,Calm,Calm,-,N/A,Rain,Light Rain,0,2013-08-22 11:15:00
6:35 AM,70.3,68.9,95,30.07,4.0,SSW,3.5,-,N/A,Rain,Light Rain,210,2013-08-22 11:35:00
6:55 AM,70.0,68.9,96,30.08,4.0,NNW,3.5,-,N/A,Thunderstorm,Unknown,330,2013-08-22 11:55:00
7:15 AM,70.9,69.1,94,30.09,4.0,NW,3.5,-,0.01,Rain-Thunderstorm,Light Thunderstorms and Rain,310,2013-08-22 12:15:00
7:35 AM,70.5,67.6,91,30.09,7.0,NW,9.2,18.4,0.02,Rain-Thunderstorm,Light Thunderstorms and Rain,310,2013-08-22 12:35:00
7:55 AM,69.4,66.7,91,30.10,1.2,West,11.5,-,0.51,Rain-Thunderstorm,Heavy Thunderstorms and Rain,270,2013-08-22 12:55:00
8:15 AM,69.8,67.6,93,30.10,7.0,West,10.4,-,0.03,Rain-Thunderstorm,Light Thunderstorms and Rain,270,2013-08-22 13:15:00
8:35 AM,68.9,67.5,95,30.12,7.0,West,10.4,-,0.06,Rain-Thunderstorm,Thunderstorms and Rain,260,2013-08-22 13:35:00
8:55 AM,69.1,67.3,94,30.12,7.0,West,11.5,16.1,0.10,Rain-Thunderstorm,Rain,270,2013-08-22 13:55:00
9:15 AM,68.9,67.1,94,30.11,7.0,West,6.9,-,0.02,Rain,Light Rain,260,2013-08-22 14:15:00
9:35 AM,68.9,67.6,96,30.12,5.0,West,5.8,-,0.06,Rain,Rain,260,2013-08-22 14:35:00
9:55 AM,68.9,67.5,95,30.12,7.0,WSW,6.9,-,0.10,Rain-Thunderstorm,Rain,240,2013-08-22 14:55:00
10:15 AM,68.4,67.1,96,30.11,7.0,SW,10.4,-,0.03,Rain-Thunderstorm,Rain,220,2013-08-22 15:15:00
10:35 AM,68.9,67.1,94,30.09,10.0,South,9.2,-,0.05,Rain,Light Rain,180,2013-08-22 15:35:00
10:55 AM,69.3,66.4,91,30.09,10.0,WSW,10.4,-,0.05,Rain-Thunderstorm,Light Thunderstorms and Rain,250,2013-08-22 15:55:00
11:15 AM,68.4,66.6,94,30.12,10.0,West,9.2,-,0.03,Rain-Thunderstorm,Rain,270,2013-08-22 16:15:00
11:35 AM,68.5,66.7,94,30.14,10.0,West,12.7,18.4,0.06,Rain-Thunderstorm,Thunderstorms and Rain,270,2013-08-22 16:35:00
11:55 AM,68.2,66.6,95,30.16,7.0,WNW,5.8,-,0.12,Rain,Rain,300,2013-08-22 16:55:00
12:15 PM,68.0,66.4,95,30.15,7.0,NW,5.8,-,0.06,Rain-Thunderstorm,Thunderstorms and Rain,320,2013-08-22 17:15:00
12:35 PM,67.5,66.4,96,30.14,5.0,North,6.9,-,0.12,Rain,Rain,350,2013-08-22 17:35:00
12:55 PM,68.0,66.7,96,30.12,7.0,NNW,6.9,-,0.19,Rain,Rain,340,2013-08-22 17:55:00
1:15 PM,68.9,67.5,95,30.13,10.0,NNW,8.1,-,0.01,Rain,Light Rain,330,2013-08-22 18:15:00
1:35 PM,69.8,67.6,93,30.13,10.0,NNW,6.9,-,0.01,,Overcast,340,2013-08-22 18:35:00
1:55 PM,69.8,67.1,91,30.14,10.0,NW,5.8,-,0.01,Rain,Rain,320,2013-08-22 18:55:00
2:15 PM,69.3,67.1,93,30.14,10.0,WNW,4.6,-,0.01,Rain,Rain,290,2013-08-22 19:15:00
2:35 PM,68.9,67.3,95,30.14,5.0,Calm,Calm,-,0.07,Rain,Rain,0,2013-08-22 19:35:00
2:55 PM,68.9,68.0,97,30.10,10.0,East,9.2,-,0.10,Rain,Light Rain,100,2013-08-22 19:55:00
3:15 PM,70.3,68.9,95,30.10,10.0,South,4.6,-,N/A,Rain,Light Rain,180,2013-08-22 20:15:00
3:35 PM,70.9,68.4,92,30.07,10.0,SE,8.1,-,N/A,,Scattered Clouds,140,2013-08-22 20:35:00
3:55 PM,71.4,68.0,89,30.06,10.0,SE,8.1,-,N/A,,Mostly Cloudy,130,2013-08-22 20:55:00
4:15 PM,72.3,68.0,86,30.04,10.0,SE,9.2,-,N/A,,Scattered Clouds,140,2013-08-22 21:15:00
4:35 PM,73.0,68.0,84,30.03,10.0,SSE,6.9,-,N/A,,Clear,150,2013-08-22 21:35:00
4:55 PM,73.0,68.2,85,30.04,10.0,SSE,5.8,-,N/A,,Clear,160,2013-08-22 21:55:00
5:15 PM,73.8,68.4,83,30.04,10.0,SE,3.5,-,N/A,,Clear,140,2013-08-22 22:15:00
5:35 PM,73.4,67.8,83,30.04,10.0,Calm,Calm,-,N/A,,Clear,0,2013-08-22 22:35:00
5:55 PM,73.2,67.8,83,30.03,10.0,ESE,4.6,-,N/A,,Scattered Clouds,120,2013-08-22 22:55:00
6:15 PM,72.9,68.2,85,30.04,10.0,Calm,Calm,-,N/A,,Mostly Cloudy,0,2013-08-22 23:15:00
6:35 PM,72.9,68.7,87,30.05,10.0,Calm,Calm,-,N/A,,Overcast,0,2013-08-22 23:35:00
6:55 PM,72.0,68.4,88,30.08,10.0,WNW,3.5,-,N/A,,Overcast,300,2013-08-22 23:55:00
7:15 PM,71.6,68.4,89,30.08,10.0,Calm,Calm,-,N/A,,Overcast,0,2013-08-23 00:15:00
7:35 PM,71.8,68.2,88,30.10,10.0,NW,6.9,-,N/A,,Overcast,320,2013-08-23 00:35:00
7:55 PM,71.4,68.0,89,30.10,10.0,NNW,5.8,-,N/A,,Overcast,340,2013-08-23 00:55:00
8:15 PM,70.7,68.0,91,30.10,10.0,North,4.6,-,N/A,,Scattered Clouds,10,2013-08-23 01:15:00
8:35 PM,69.8,68.0,94,30.11,10.0,NNE,4.6,-,N/A,,Clear,30,2013-08-23 01:35:00
8:55 PM,69.3,67.6,95,30.11,10.0,Calm,Calm,-,N/A,,Clear,0,2013-08-23 01:55:00
9:15 PM,68.5,67.3,96,30.12,10.0,Calm,Calm,-,N/A,,Clear,0,2013-08-23 02:15:00
9:35 PM,67.8,66.9,97,30.12,10.0,Calm,Calm,-,N/A,,Clear,0,2013-08-23 02:35:00
9:55 PM,66.7,66.4,99,30.12,5.0,Calm,Calm,-,N/A,,Clear,0,2013-08-23 02:55:00
10:15 PM,66.2,65.8,99,30.12,3.0,Calm,Calm,-,N/A,,Clear,0,2013-08-23 03:15:00
10:35 PM,66.2,66.0,99,30.12,0.2,Calm,Calm,-,N/A,Fog,Fog,0,2013-08-23 03:35:00
10:55 PM,64.2,64.0,99,30.12,0.2,Calm,Calm,-,N/A,Fog,Fog,0,2013-08-23 03:55:00
11:15 PM,63.3,63.0,99,30.12,0.2,Calm,Calm,-,N/A,Fog,Fog,0,2013-08-23 04:15:00
11:35 PM,63.3,63.1,99,30.12,0.2,Calm,Calm,-,N/A,Fog,Fog,0,2013-08-23 04:35:00
11:55 PM,63.5,63.3,99,30.12,0.2,Calm,Calm,-,N/A,Fog,Fog,0,2013-08-23 04:55:00